Date String (YYYY-MM-DD hh:mm:ss) UTC,Instrument flags,Ambient pressure (hPa),Sample flow (lpm),Bypass flow (lpm),Sample temperature (°C),Ambient temperature (°C),ASC tube jacket temperature (°C),LED temperature (°C),Box temperature (°C),Sample RH (%),Span deviation,Mass concentration (μg/m³),Mass concentration (μg/m³),Mass concentration (μg/m³)
DateTimeUTC,F1_M11,P_M11,Q1_M11,Q2_M11,T1_M11,T2_M11,T3_M11,T4_M11,T5_M11,U1_M11,ZSPAN_M11,X0_M11,X2_M11,X1_M11
2021-11-05 02:00:00,,0824.9,5.01,0.00,30.4,29.4,00.0,39.4,32.1,10.3,0000.0,0012.03,0003.50,0002.51
2021-11-05 02:01:00,,0824.9,4.99,0.00,30.4,29.4,00.0,39.4,32.1,10.2,0000.0,0011.98,0003.47,0002.52
2021-11-05 02:02:00,,0824.9,5.00,0.00,30.4,29.4,00.0,39.4,32.1,10.2,0000.0,0012.43,0003.50,0002.54
2021-11-05 02:03:00,,0824.9,5.00,0.00,30.4,29.4,00.0,39.4,32.1,10.2,0000.0,0013.24,0003.52,0002.53
2021-11-05 02:04:00,,0824.9,5.00,0.00,30.4,29.5,00.0,39.4,32.1,10.2,0000.0,0013.03,0003.51,0002.51
2021-11-05 02:05:00,,0824.9,5.01,0.00,30.4,29.4,00.0,39.4,32.1,10.2,0000.0,0012.12,0003.49,0002.49
2021-11-05 02:06:00,,0824.9,4.99,0.00,30.4,29.4,00.0,39.4,32.1,10.2,0000.0,0011.99,0003.48,0002.50
2021-11-05 02:07:00,,0824.9,5.00,0.00,30.4,29.4,00.0,39.4,32.1,10.2,0000.0,0012.08,0003.45,0002.51
2021-11-05 02:08:00,,0824.9,5.01,0.00,30.4,29.4,00.0,39.4,32.1,10.3,0000.0,0012.07,0003.44,0002.52
2021-11-05 02:09:00,,0824.9,5.01,0.00,30.4,29.4,00.0,39.4,32.0,10.3,0000.0,0011.33,0003.43,0002.51
2021-11-05 02:10:00,,0824.9,5.00,0.00,30.4,29.4,00.0,39.4,32.1,10.3,0000.0,0011.38,0003.43,0002.52
2021-11-05 02:11:00,,0824.9,5.00,0.00,30.4,29.4,00.0,39.4,32.1,10.2,0000.0,0011.62,0003.39,0002.51
2021-11-05 02:12:00,,0824.9,5.01,0.00,30.4,29.4,00.0,39.4,32.1,10.2,0000.0,0011.72,0003.39,0002.52
2021-11-05 02:13:00,,0824.9,4.99,0.00,30.4,29.5,00.0,39.4,32.1,10.2,0000.0,0011.95,0003.35,0002.52
2021-11-05 02:14:00,,0824.9,5.00,0.00,30.4,29.5,00.0,39.4,32.1,10.2,0000.0,0012.09,0003.32,0002.53
2021-11-05 02:15:00,,0824.9,5.00,0.00,30.4,29.5,00.0,39.4,32.0,10.6,0000.0,0011.24,0003.27,0002.53
2021-11-05 02:16:00,,0824.9,5.00,0.00,30.4,29.4,00.0,39.4,32.1,10.6,0000.0,0010.69,0003.26,0002.56
2021-11-05 02:17:00,,0824.9,4.99,0.00,30.4,29.4,00.0,39.4,32.0,10.5,0000.0,0010.64,0003.24,0002.55
2021-11-05 02:18:00,,0824.9,5.01,0.00,30.4,29.4,00.0,39.4,32.0,10.4,0000.0,0011.27,0003.24,0002.55
2021-11-05 02:19:00,,0824.9,5.00,0.00,30.4,29.4,00.0,39.4,32.0,10.3,0000.0,0011.59,0003.23,0002.53
2021-11-05 02:20:00,,0824.9,5.00,0.00,30.4,29.4,00.0,39.4,32.0,10.3,0000.0,0014.49,0003.27,0002.52
2021-11-05 02:21:00,,0824.9,4.99,0.00,30.4,29.4,00.0,39.4,32.0,10.4,0000.0,0015.64,0003.27,0002.50
2021-11-05 02:22:00,,0824.9,5.00,0.00,30.3,29.4,00.0,39.4,32.0,10.6,0000.0,0016.92,0003.29,0002.50
2021-11-05 02:23:00,,0824.9,5.01,0.00,30.3,29.4,00.0,39.4,32.0,10.7,0000.0,0017.05,0003.34,0002.51
2021-11-05 02:24:00,,0824.9,5.00,0.00,30.4,29.4,00.0,39.4,32.0,10.6,0000.0,0016.11,0003.35,0002.51
2021-11-05 02:25:00,,0824.9,5.00,0.00,30.4,29.4,00.0,39.4,32.1,10.6,0000.0,0014.97,0003.35,0002.52
2021-11-05 02:26:00,,0824.9,5.00,0.00,30.4,29.4,00.0,39.4,32.1,10.5,0000.0,0014.64,0003.38,0002.51
2021-11-05 02:27:00,,0824.9,5.00,0.00,30.3,29.4,00.0,39.4,32.0,10.5,0000.0,0014.77,0003.39,0002.49
2021-11-05 02:28:00,,0824.9,4.99,0.00,30.3,29.4,00.0,39.4,32.0,10.4,0000.0,0014.95,0003.41,0002.49
2021-11-05 02:29:00,,0824.9,5.01,0.00,30.3,29.4,00.0,39.4,32.1,10.4,0000.0,0014.00,0003.40,0002.48
2021-11-05 02:30:00,,0824.9,5.00,0.00,30.3,29.4,00.0,39.4,32.1,10.4,0000.0,0013.77,0003.42,0002.48
2021-11-05 02:31:00,,0824.9,4.99,0.00,30.3,29.4,00.0,39.4,32.0,10.3,0000.0,0011.56,0003.42,0002.50
2021-11-05 02:32:00,,0824.9,5.02,0.00,30.3,29.4,00.0,39.4,32.0,10.3,0000.0,0011.66,0003.48,0002.52
2021-11-05 02:33:00,,0824.9,5.01,0.00,30.3,29.4,00.0,39.4,32.0,10.3,0000.0,0010.78,0003.52,0002.53
2021-11-05 02:34:00,,0824.9,4.99,0.00,30.3,29.4,00.0,39.4,32.0,10.3,0000.0,0010.59,0003.50,0002.51
2021-11-05 02:35:00,,0824.9,5.00,0.00,30.3,29.4,00.0,39.4,32.0,10.2,0000.0,0010.59,0003.48,0002.50
2021-11-05 02:36:00,,0824.9,4.99,0.00,30.3,29.4,00.0,39.4,32.0,10.2,0000.0,0011.04,0003.47,0002.51
2021-11-05 02:37:00,,0824.9,5.00,0.00,30.3,29.4,00.0,39.4,32.0,10.2,0000.0,0012.78,0003.50,0002.53
2021-11-05 02:38:00,,0824.9,5.00,0.00,30.3,29.4,00.0,39.4,32.1,10.4,0000.0,0014.34,0003.52,0002.56
2021-11-05 02:39:00,,0824.8,4.99,0.00,30.3,29.4,00.0,39.4,32.1,10.4,0000.0,0015.01,0003.49,0002.53
2021-11-05 02:40:00,,0824.8,5.01,0.00,30.3,29.4,00.0,39.4,32.0,10.5,0000.0,0015.12,0003.46,0002.48
2021-11-05 02:41:00,,0824.8,5.00,0.00,30.3,29.4,00.0,39.4,32.0,10.6,0000.0,0015.67,0003.42,0002.44
2021-11-05 02:42:00,,0824.8,5.00,0.00,30.3,29.4,00.0,39.4,32.0,10.6,0000.0,0015.93,0003.35,0002.38
2021-11-05 02:43:00,,0824.8,5.00,0.00,30.3,29.4,00.0,39.4,32.0,10.6,0000.0,0013.98,0003.22,0002.29
2021-11-05 02:44:00,,0824.7,5.00,0.00,30.3,29.4,00.0,39.4,32.0,10.6,0000.0,0013.03,0003.08,0002.21
2021-11-05 02:45:00,,0824.7,4.99,0.00,30.3,29.4,00.0,39.4,32.0,10.7,0000.0,0011.94,0002.88,0002.13
2021-11-05 02:46:00,,0824.7,5.01,0.00,30.3,29.4,00.0,39.4,32.0,10.6,0000.0,0011.83,0002.80,0002.07
2021-11-05 02:47:00,,0824.6,5.00,0.00,30.3,29.4,00.0,39.4,32.0,10.7,0000.0,0011.37,0002.72,0001.98
2021-11-05 02:48:00,,0824.6,5.00,0.00,30.3,29.4,00.0,39.4,32.0,10.7,0000.0,0010.17,0002.60,0001.93
2021-11-05 02:49:00,,0824.5,4.99,0.00,30.3,29.4,00.0,39.4,32.0,10.7,0000.0,0008.49,0002.49,0001.86
2021-11-05 02:50:00,,0824.7,5.01,0.00,30.3,29.4,00.0,39.4,32.0,10.7,0000.0,0007.65,0002.43,0001.82
2021-11-05 02:51:00,,0824.6,5.00,0.00,30.3,29.4,00.0,39.4,32.0,10.7,0000.0,0007.45,0002.37,0001.82
2021-11-05 02:52:00,,0824.8,4.99,0.00,30.3,29.3,00.0,39.4,32.0,10.7,0000.0,0006.34,0002.37,0001.81
2021-11-05 02:53:00,,0824.6,5.01,0.00,30.3,29.4,00.0,39.4,32.0,10.7,0000.0,0006.71,0002.44,0001.81
2021-11-05 02:54:00,,0824.6,5.00,0.00,30.3,29.4,00.0,39.4,32.0,10.7,0000.0,0007.56,0002.51,0001.83
2021-11-05 02:55:00,,0824.5,5.00,0.00,30.3,29.3,00.0,39.4,32.0,10.7,0000.0,0008.97,0002.58,0001.86
2021-11-05 02:56:00,,0824.6,4.99,0.00,30.3,29.4,00.0,39.4,32.0,10.7,0000.0,0009.03,0002.64,0001.90
2021-11-05 02:57:00,,0824.7,5.00,0.00,30.3,29.4,00.0,39.4,32.0,10.7,0000.0,0009.17,0002.74,0001.93
2021-11-05 02:58:00,,0824.8,5.00,0.00,30.3,29.4,00.0,39.3,32.0,10.8,0000.0,0009.09,0002.75,0001.94
2021-11-05 02:59:00,,0824.8,5.01,0.00,30.3,29.4,00.0,39.3,32.0,10.7,0000.0,0008.27,0002.75,0001.94
